Location: East Arcadia
(34.1056°N, 118.0176°W)
Time: 01:18:09
(UTC+00:00)

Cosmos 1536 - Pass Details

Date: 01 April 2023
Orbit: 526 x 553 km, 82.5° (Epoch: 08 June)

Event Time Altitude Azimuth Distance (km) Brightness Sun altitude
Rises 12:15:29 0° 350° (N) 2,703 6.5 -17.8°
Reaches altitude 10° 12:17:39 10° 349° (NNW) 1,812 5.5 -17.4°
Maximum altitude 12:21:37 71° 265° (W) 580 2.7 -16.6°
Drops below altitude 10° 12:25:35 10° 182° (S) 1,817 5.3 -15.8°
Sets 12:27:45 0° 180° (S) 2,710 6.2 -15.4°
